sat.trackr.live / text

‹ back to catalog

STARLINK-4074

NORAD 52678 · 2022-053Y

PAYLOAD ACTIVE UNKNOWN

§ Identity

Operator
Country
US
Launch date
2022-05-18
Launch site
AFETR
Launch vehicle
Mass (kg)
RCS (m²)

Purposes: comms

External: N2YO · Heavens-Above · Gunter

§ Orbital elements

Epoch: 2026-09-19T22:39:24.611040Z

Period
94.01 min
Inclination
53.1612°
Eccentricity
0.0001062
Mean motion
15.31698642 rev/d
Perigee alt
470.0 km
Apogee alt
471.5 km
Semi-major
6,848.9 km
B*
3.0327e-5
RAAN
345.4129°
Arg perigee
81.6593°
Mean anomaly
278.4528°
Rev number
24,058

§ Raw data

STARLINK-40741 52678U 22053Y   26262.94403485  .00000576  00000+0  30327-4 0  99912 52678  53.1612 345.4129 0001062  81.6593 278.4528 15.31698642240587

JSON: /api/v1/satellites/52678 · /tle

For live sub-satellite position, see the globe view (requires WebGL).

§ Visibility from observer

Set your observer location to see the next 7 days of passes ≥ 10°. The values pass through the URL so the page stays shareable.

No JS? Fill the form by hand. The geolocation button needs JavaScript.